K9BM Weather Reports


time (UTC)temp
F
wind
direction
speed
knots
gust
knots
rain 1hr
in
rain 24hr
in
rain mn
in
humidity
%
barometer
mb
20260504082004 50 238 4.3 7.0 0.00 0.00 0.00 45 1003.9
20260504081504 49 220 4.3 7.8 0.00 0.00 0.00 46 1003.9
20260504050004 53 198 7.0 7.8 0.00 0.00 0.00 42 1004.3
20260504045505 53 232 3.5 10.4 0.00 0.00 0.00 40 1004.4
20260504043504 55 183 6.1 8.7 0.00 0.00 0.00 37 1004.3
20260504043005 55 166 7.8 8.7 0.00 0.00 0.00 36 1004.3
20260504042504 56 176 6.1 7.8 0.00 0.00 0.00 36 1004.3
20260504042005 55 175 6.1 7.8 0.00 0.00 0.00 36 1004.3
20260504041504 55 175 6.1 7.8 0.00 0.00 0.00 37 1004.2
20260504041004 55 168 7.0 7.8 0.00 0.00 0.00 37 1004.2
20260504040005 56 147 4.3 5.2 0.00 0.00 0.00 36 1004.1
20260504035504 57 107 0.9 5.2 0.00 0.00 0.00 35 1004.2
20260504035004 57 68 0.0 2.6 0.00 0.00 0.00 35 1004.2
20260504034504 57 66 0.0 8.7 0.00 0.00 0.00 35 1004.1
20260504034004 56 66 2.6 8.7 0.00 0.00 0.00 35 1004.0
20260504033505 57 87 3.5 8.7 0.00 0.00 0.00 36 1003.9
20260504033004 58 196 5.2 6.1 0.00 0.00 0.00 34 1003.7
20260504032504 59 199 5.2 6.1 0.00 0.00 0.00 33 1003.7
20260504032004 59 201 5.2 6.1 0.00 0.00 0.00 32 1003.6
20260504031504 60 201 3.5 5.2 0.00 0.00 0.00 31 1003.6
20260504025504 62 279 1.7 2.6 0.00 0.00 0.00 29 1003.5
20260504025005 62 281 1.7 2.6 0.00 0.00 0.00 28 1003.5
20260504024004 63 272 2.6 2.6 0.00 0.00 0.00 28 1003.4
20260504023005 63 274 0.0 6.1 0.00 0.00 0.00 29 1003.4
20260504022505 63 271 2.6 6.1 0.00 0.00 0.00 28 1003.3
20260504022004 64 267 5.2 7.0 0.00 0.00 0.00 27 1003.4
20260504021504 64 264 5.2 7.0 0.00 0.00 0.00 27 1003.3
20260504021004 65 266 5.2 7.8 0.00 0.00 0.00 27 1003.3
20260504015504 66 273 6.1 10.4 0.00 0.00 0.00 26 1003.4
20260504015005 66 280 6.1 10.4 0.00 0.00 0.00 25 1003.4
20260504014005 68 277 6.1 11.3 0.00 0.00 0.00 24 1003.5
20260504013504 68 266 7.8 11.3 0.00 0.00 0.00 23 1003.5
20260504013004 68 267 7.8 11.3 0.00 0.00 0.00 23 1003.5
20260504012004 69 257 8.7 11.3 0.00 0.00 0.00 22 1003.5
20260504011504 69 277 7.8 12.2 0.00 0.00 0.00 22 1003.6
20260504011004 69 290 7.8 12.2 0.00 0.00 0.00 23 1003.7
20260504010004 70 296 8.7 12.2 0.00 0.00 0.00 23 1003.8
20260504005504 69 281 6.1 12.2 0.00 0.00 0.00 23 1003.8
20260504005004 70 277 9.6 13.0 0.00 0.00 0.00 22 1003.9
20260504004504 70 281 7.8 13.0 0.00 0.00 0.00 23 1004.0
20260504004004 70 290 7.8 13.0 0.00 0.00 0.00 23 1004.0
20260504003504 70 285 10.4 13.0 0.00 0.00 0.00 22 1004.1
20260504003004 70 286 10.4 13.0 0.00 0.00 0.00 22 1004.1
20260504002504 70 264 7.8 13.0 0.00 0.00 0.00 23 1004.1
20260504001504 70 298 8.7 12.2 0.00 0.00 0.00 23 1004.2
20260504001004 70 279 7.8 14.8 0.00 0.00 0.00 22 1004.3
20260504000004 70 278 10.4 13.9 0.00 0.00 0.00 22 1004.4
20260503235504 71 277 10.4 14.8 0.00 0.00 0.00 22 1004.5
20260503235004 71 274 8.7 14.8 0.00 0.00 0.00 21 1004.6
20260503234504 71 305 10.4 14.8 0.00 0.00 0.00 21 1004.6
20260503234004 71 300 7.8 14.8 0.00 0.00 0.00 21 1004.7
20260503233506 70 320 8.7 15.6 0.00 0.00 0.00 22 1004.7
20260503233005 70 303 8.7 18.2 0.00 0.00 0.00 22 1004.8
20260503232505 70 295 10.4 18.2 0.00 0.00 0.00 23 1004.8
20260503232005 70 285 12.2 18.2 0.00 0.00 0.00 23 1004.8
20260503231505 71 274 9.6 14.8 0.00 0.00 0.00 22 1004.9
20260503231005 71 293 9.6 15.6 0.00 0.00 0.00 22 1005.0
20260503230006 71 282 12.2 17.4 0.00 0.00 0.00 21 1005.1
20260503225506 71 293 12.2 17.4 0.00 0.00 0.00 21 1005.1
20260503225005 71 276 10.4 17.4 0.00 0.00 0.00 20 1005.1
20260503224505 71 258 10.4 17.4 0.00 0.00 0.00 20 1005.2
20260503224005 71 272 11.3 17.4 0.00 0.00 0.00 20 1005.2
20260503223506 71 272 7.8 18.2 0.00 0.00 0.00 20 1005.3
20260503223005 71 276 9.6 18.2 0.00 0.00 0.00 20 1005.3
20260503222504 71 291 9.6 18.2 0.00 0.00 0.00 20 1005.3
20260503222005 71 296 9.6 17.4 0.00 0.00 0.00 19 1005.5
20260503221505 70 265 11.3 18.2 0.00 0.00 0.00 20 1005.5
20260503221006 70 258 11.3 18.2 0.00 0.00 0.00 20 1005.5
20260503220005 70 270 10.4 15.6 0.00 0.00 0.00 20 1005.7
20260503215505 70 275 11.3 15.6 0.00 0.00 0.00 20 1005.8
20260503214505 70 287 12.2 21.7 0.00 0.00 0.00 19 1005.9
20260503213005 70 253 12.2 20.9 0.00 0.00 0.00 22 1006.2
20260503212505 70 271 12.2 20.9 0.00 0.00 0.00 20 1006.3
20260503212005 70 287 10.4 20.9 0.00 0.00 0.00 21 1006.4
20260503211505 70 285 14.8 20.9 0.00 0.00 0.00 21 1006.4
20260503211005 70 243 8.7 19.1 0.00 0.00 0.00 22 1006.4
20260503210006 70 272 9.6 15.6 0.00 0.00 0.00 24 1006.5
20260503205505 70 287 10.4 17.4 0.00 0.00 0.00 24 1006.6
20260503205005 70 294 11.3 17.4 0.00 0.00 0.00 23 1006.7
20260503204505 70 288 11.3 17.4 0.00 0.00 0.00 25 1006.7
20260503204005 69 297 10.4 17.4 0.00 0.00 0.00 25 1006.8
20260503203005 69 275 10.4 17.4 0.00 0.00 0.00 24 1006.9
20260503202505 69 241 9.6 17.4 0.00 0.00 0.00 25 1007.0
20260503202005 70 279 12.2 17.4 0.00 0.00 0.00 25 1007.0
20260503201505 69 295 9.6 15.6 0.00 0.00 0.00 25 1007.1
20260503201005 69 299 11.3 17.4 0.00 0.00 0.00 25 1007.2
20260503195505 68 259 11.3 21.7 0.00 0.00 0.00 26 1007.4
20260503195005 68 291 12.2 21.7 0.00 0.00 0.00 26 1007.4
20260503194005 68 288 11.3 17.4 0.00 0.00 0.00 28 1007.6
20260503193504 68 276 8.7 17.4 0.00 0.00 0.00 29 1007.7
20260503193005 67 288 11.3 17.4 0.00 0.00 0.00 29 1007.8
20260503192504 68 305 7.0 17.4 0.00 0.00 0.00 29 1007.9
20260503192005 67 293 10.4 17.4 0.00 0.00 0.00 29 1008.0
20260503191505 67 283 11.3 17.4 0.00 0.00 0.00 30 1008.2
20260503185505 67 261 11.3 17.4 0.00 0.00 0.00 30 1008.3
20260503185005 66 297 11.3 17.4 0.00 0.00 0.00 29 1008.5
20260503184505 66 304 10.4 17.4 0.00 0.00 0.00 28 1008.6
20260503183505 66 289 8.7 17.4 0.00 0.00 0.00 31 1008.6
20260503183005 67 253 13.0 18.2 0.00 0.00 0.00 31 1008.6
20260503182505 66 249 13.9 19.1 0.00 0.00 0.00 30 1008.7
20260503182006 66 290 8.7 19.1 0.00 0.00 0.00 31 1008.7
20260503181505 66 276 12.2 18.2 0.00 0.00 0.00 30 1008.9
20260503181005 66 274 11.3 20.9 0.00 0.00 0.00 30 1008.9
20260503180005 66 292 12.2 20.0 0.00 0.00 0.00 31 1009.0
20260503175505 65 313 11.3 20.0 0.00 0.00 0.00 31 1009.1
20260503174505 64 266 7.8 15.6 0.00 0.00 0.00 34 1009.2
20260503174006 64 251 9.6 17.4 0.00 0.00 0.00 34 1009.3
20260503173505 65 295 11.3 17.4 0.00 0.00 0.00 33 1009.4
20260503173005 64 269 10.4 17.4 0.00 0.00 0.00 36 1009.3
20260503172505 64 274 11.3 17.4 0.00 0.00 0.00 35 1009.4
20260503172005 64 261 10.4 14.8 0.00 0.00 0.00 36 1009.4
20260503171504 63 279 11.3 14.8 0.00 0.00 0.00 35 1009.5
20260503171005 63 266 10.4 15.6 0.00 0.00 0.00 37 1009.5
20260503131005 46 234 4.3 5.2 0.00 0.00 0.00 67 1011.3